GW7173 Weather Reports


Display with metric or nautical units.
time (UTC)temp
F
wind
direction
speed
MPH
gust
MPH
rain 1hr
in
rain 24hr
in
rain mn
in
humidity
%
barometer
mb
20260508225259 69 306 6.0 7.0 0.00 0.00 0.00 34 1010.7
20260508224757 70 273 6.0 8.0 0.00 0.00 0.00 31 1010.5
20260508224254 70 243 2.0 6.0 0.00 0.00 0.00 38 1010.7
20260508223752 70 279 3.0 8.0 0.00 0.00 0.00 36 1010.8
20260508223249 70 292 3.0 9.0 0.00 0.00 0.00 37 1010.5
20260508222746 70 314 7.0 11.0 0.00 0.00 0.00 31 1010.5
20260508222243 71 292 5.0 10.0 0.00 0.00 0.00 35 1010.3
20260508221740 71 286 3.0 10.0 0.00 0.00 0.00 35 1010.5
20260508221236 71 273 4.0 9.0 0.00 0.00 0.00 33 1010.4
20260508220732 70 312 4.0 7.0 0.00 0.00 0.00 33 1010.5
20260508220229 71 246 4.0 7.0 0.00 0.00 0.00 38 1010.7
20260508215725 71 299 7.0 10.0 0.00 0.00 0.00 34 1010.6
20260508215221 71 269 4.0 7.0 0.00 0.00 0.00 34 1010.6
20260508214719 71 300 3.0 11.0 0.00 0.00 0.00 35 1010.6
20260508214216 71 298 5.0 9.0 0.00 0.00 0.00 32 1010.6
20260508213712 71 308 3.0 6.0 0.00 0.00 0.00 37 1010.3
20260508213209 71 299 3.0 9.0 0.00 0.00 0.00 38 1010.4
20260508212706 71 304 4.0 11.0 0.00 0.00 0.00 37 1010.3
20260508212202 71 271 4.0 9.0 0.00 0.00 0.00 34 1010.4
20260508211657 71 267 6.0 7.0 0.00 0.00 0.00 35 1010.7
20260508211154 71 271 4.0 10.0 0.00 0.00 0.00 34 1010.6
20260508210651 71 303 5.0 8.0 0.00 0.00 0.00 35 1010.6
20260508210148 71 303 5.0 11.0 0.00 0.00 0.00 34 1011.1
20260508205645 71 264 4.0 13.0 0.00 0.00 0.00 36 1010.9
20260508205142 72 319 9.0 14.0 0.00 0.00 0.00 32 1010.9
20260508204638 72 278 4.0 6.0 0.00 0.00 0.00 38 1011.1
20260508204134 71 260 5.0 9.0 0.00 0.00 0.00 34 1011.3
20260508203630 72 268 9.0 10.0 0.00 0.00 0.00 33 1011.2
20260508203126 72 297 2.0 4.0 0.00 0.00 0.00 41 1011.1
20260508202623 71 282 6.0 8.0 0.00 0.00 0.00 32 1011.7
20260508202120 71 284 4.0 7.0 0.00 0.00 0.00 34 1011.8
20260508201617 71 295 4.0 10.0 0.00 0.00 0.00 37 1011.8
20260508201113 71 297 3.0 7.0 0.00 0.00 0.00 39 1011.9
20260508200610 71 241 5.0 11.0 0.00 0.00 0.00 36 1011.8
20260508200106 71 263 4.0 11.0 0.00 0.00 0.00 38 1011.7
20260508195603 71 258 5.0 6.0 0.00 0.00 0.00 38 1011.8
20260508195059 71 321 6.0 9.0 0.00 0.00 0.00 35 1011.8
20260508194556 71 266 6.0 9.0 0.00 0.00 0.00 36 1011.6
20260508194054 70 236 7.0 9.0 0.00 0.00 0.00 36 1011.8
20260508193549 71 248 7.0 10.0 0.00 0.00 0.00 36 1011.7
20260508193047 71 290 3.0 6.0 0.00 0.00 0.00 42 1011.7
20260508192543 71 332 3.0 7.0 0.00 0.00 0.00 43 1011.8
20260508192040 70 320 8.0 9.0 0.00 0.00 0.00 37 1011.9
20260508191537 70 278 6.0 11.0 0.00 0.00 0.00 36 1012.0
20260508191033 70 264 6.0 7.0 0.00 0.00 0.00 39 1012.1
20260508190531 70 299 5.0 9.0 0.00 0.00 0.00 40 1012.2
20260508190027 70 314 5.0 8.0 0.00 0.00 0.00 39 1012.2
20260508185525 70 303 9.0 11.0 0.00 0.00 0.00 39 1012.3
20260508185022 69 267 4.0 11.0 0.00 0.00 0.00 41 1012.4
20260508184519 70 280 4.0 6.0 0.00 0.00 0.00 41 1012.2
20260508184016 70 258 7.0 11.0 0.00 0.00 0.00 35 1012.5
20260508183512 69 303 6.0 8.0 0.00 0.00 0.00 37 1012.5
20260508183008 69 263 8.0 11.0 0.00 0.00 0.00 37 1012.8
20260508182505 69 268 3.0 7.0 0.00 0.00 0.00 37 1012.9
20260508182001 69 237 6.0 15.0 0.00 0.00 0.00 38 1012.9
20260508181457 69 317 5.0 13.0 0.00 0.00 0.00 36 1013.1
20260508180955 69 294 3.0 10.0 0.00 0.00 0.00 42 1013.1
20260508180451 69 216 6.0 13.0 0.00 0.00 0.00 36 1013.2
20260508175947 69 248 5.0 11.0 0.00 0.00 0.00 41 1013.3
20260508175444 69 304 4.0 8.0 0.00 0.00 0.00 39 1013.7
20260508174942 69 323 5.0 9.0 0.00 0.00 0.00 39 1013.6
20260508174439 69 281 4.0 8.0 0.00 0.00 0.00 38 1013.8
20260508173936 69 295 6.0 10.0 0.00 0.00 0.00 39 1014.2
20260508173433 69 307 6.0 8.0 0.00 0.00 0.00 36 1013.8
20260508172929 68 267 3.0 13.0 0.00 0.00 0.00 37 1014.0
20260508172426 69 309 5.0 9.0 0.00 0.00 0.00 38 1014.1
20260508171923 68 286 2.0 3.0 0.00 0.00 0.00 41 1014.2
20260508171419 68 289 8.0 9.0 0.00 0.00 0.00 38 1014.4
20260508170916 68 307 4.0 7.0 0.00 0.00 0.00 40 1014.7
20260508170413 68 276 3.0 3.0 0.00 0.00 0.00 40 1014.4
20260508165910 68 269 5.0 7.0 0.00 0.00 0.00 38 1014.7
20260508165408 68 295 5.0 8.0 0.00 0.00 0.00 39 1014.8
20260508164903 68 318 4.0 7.0 0.00 0.00 0.00 37 1015.0
20260508164401 67 255 4.0 6.0 0.00 0.00 0.00 48 1014.8
20260508163858 68 287 4.0 7.0 0.00 0.00 0.00 44 1015.1
20260508163356 67 262 3.0 9.0 0.00 0.00 0.00 44 1015.2
20260508162851 67 243 6.0 8.0 0.00 0.00 0.00 37 1015.2
20260508162349 67 240 4.0 8.0 0.00 0.00 0.00 44 1015.4
20260508161846 67 321 3.0 9.0 0.00 0.00 0.00 37 1015.1
20260508161343 66 254 4.0 4.0 0.00 0.00 0.00 40 1015.4
20260508160840 67 311 4.0 7.0 0.00 0.00 0.00 41 1015.5
20260508160339 66 296 4.0 11.0 0.00 0.00 0.00 45 1015.6
20260508155835 66 317 3.0 6.0 0.00 0.00 0.00 43 1015.5
20260508155332 66 293 2.0 4.0 0.00 0.00 0.00 46 1015.5
20260508154828 66 277 4.0 4.0 0.00 0.00 0.00 46 1015.8
20260508154326 65 301 4.0 6.0 0.00 0.00 0.00 40 1015.7
20260508153822 65 316 5.0 10.0 0.00 0.00 0.00 40 1015.7
20260508153321 66 246 5.0 9.0 0.00 0.00 0.00 42 1015.7
20260508152815 65 273 1.0 4.0 0.00 0.00 0.00 46 1015.8
20260508152312 65 297 4.0 6.0 0.00 0.00 0.00 42 1016.0
20260508151808 65 348 4.0 6.0 0.00 0.00 0.00 41 1015.8
20260508151305 64 271 2.0 7.0 0.00 0.00 0.00 39 1015.9
20260508150802 64 319 4.0 7.0 0.00 0.00 0.00 49 1016.2
20260508150259 64 293 2.0 8.0 0.00 0.00 0.00 48 1016.2
20260508145755 64 289 4.0 4.0 0.00 0.00 0.00 49 1016.0
20260508145251 64 271 2.0 6.0 0.00 0.00 0.00 48 1016.0
20260508144748 63 299 3.0 6.0 0.00 0.00 0.00 47 1016.2
20260508144246 63 327 5.0 10.0 0.00 0.00 0.00 45 1016.2
20260508143743 63 271 4.0 6.0 0.00 0.00 0.00 43 1016.0
20260508143240 63 299 5.0 8.0 0.00 0.00 0.00 43 1016.2
20260508142736 62 318 3.0 7.0 0.00 0.00 0.00 46 1016.0
20260508142233 61 323 3.0 9.0 0.00 0.00 0.00 49 1016.1
20260508141730 61 299 2.0 7.0 0.00 0.00 0.00 47 1016.1
20260508141228 60 346 4.0 6.0 0.00 0.00 0.00 47 1016.4
20260508140725 60 310 3.0 4.0 0.00 0.00 0.00 49 1016.3
20260508140221 61 303 5.0 7.0 0.00 0.00 0.00 46 1016.2
20260508135718 60 314 2.0 6.0 0.00 0.00 0.00 51 1016.1
20260508135213 59 237 4.0 4.0 0.00 0.00 0.00 50 1016.2
20260508134709 59 308 4.0 4.0 0.00 0.00 0.00 51 1016.0
20260508134207 59 264 6.0 8.0 0.00 0.00 0.00 49 1016.1
20260508133703 59 282 3.0 6.0 0.00 0.00 0.00 50 1016.1
20260508133201 58 326 4.0 7.0 0.00 0.00 0.00 54 1016.1
20260508132659 57 307 3.0 4.0 0.00 0.00 0.00 54 1015.9
20260508132156 57 290 2.0 6.0 0.00 0.00 0.00 52 1016.3
20260508131651 56 318 2.0 3.0 0.00 0.00 0.00 53 1016.2
20260508131148 56 304 6.0 7.0 0.00 0.00 0.00 56 1016.2
20260508130644 56 309 2.0 4.0 0.00 0.00 0.00 53 1015.9
20260508130142 56 254 3.0 4.0 0.00 0.00 0.00 59 1016.1
20260508125637 56 283 2.0 7.0 0.00 0.00 0.00 57 1016.2
20260508125134 55 292 2.0 3.0 0.00 0.00 0.00 62 1016.1
20260508124632 55 287 1.0 2.0 0.00 0.00 0.00 60 1015.8
20260508124129 54 312 3.0 3.0 0.00 0.00 0.00 60 1016.0
20260508123627 54 253 1.0 3.0 0.00 0.00 0.00 62 1016.1
20260508123125 53 255 2.0 3.0 0.00 0.00 0.00 65 1016.1
20260508122620 52 271 1.0 3.0 0.00 0.00 0.00 67 1016.1
20260508122118 51 250 2.0 4.0 0.00 0.00 0.00 68 1016.0
20260508121616 51 259 2.0 3.0 0.00 0.00 0.00 68 1015.8
20260508121114 50 251 1.0 2.0 0.00 0.00 0.00 72 1015.8
20260508120611 49 261 3.0 3.0 0.00 0.00 0.00 70 1016.0
20260508120109 48 300 2.0 2.0 0.00 0.00 0.00 73 1015.9
20260508115606 48 253 2.0 2.0 0.00 0.00 0.00 72 1016.0
20260508115103 47 258 2.0 2.0 0.00 0.00 0.00 74 1015.8
20260508114600 47 262 1.0 4.0 0.00 0.00 0.00 74 1016.0
20260508114056 46 256 1.0 2.0 0.00 0.00 0.00 74 1015.7
20260508113554 46 265 2.0 3.0 0.00 0.00 0.00 74 1015.5
20260508113052 45 255 2.0 2.0 0.00 0.00 0.00 75 1015.5
20260508112547 45 254 1.0 1.0 0.00 0.00 0.00 77 1015.5
20260508112045 45 255 0.0 0.0 0.00 0.00 0.00 77 1015.6
20260508111542 43 255 0.0 0.0 0.00 0.00 0.00 78 1015.6
20260508111038 42 255 0.0 0.0 0.00 0.00 0.00 80 1015.7
20260508110537 42 255 0.0 1.0 0.00 0.00 0.00 81 1015.5
20260508110032 41 254 0.0 0.0 0.00 0.00 0.00 84 1015.4
20260508105527 40 254 0.0 0.0 0.00 0.00 0.00 85 1015.3
20260508105025 39 254 0.0 0.0 0.00 0.00 0.00 87 1015.2
20260508104523 39 254 0.0 0.0 0.00 0.00 0.00 87 1015.2
20260508104019 39 254 0.0 0.0 0.00 0.00 0.00 87 1015.5
20260508103516 39 254 0.0 0.0 0.00 0.00 0.00 85 1015.3
20260508103013 40 254 0.0 0.0 0.00 0.00 0.00 84 1015.0
20260508102511 40 254 0.0 0.0 0.00 0.00 0.00 83 1015.2
20260508102008 40 254 1.0 0.0 0.00 0.00 0.00 83 1015.1
20260508101506 40 254 0.0 0.0 0.00 0.00 0.00 83 1015.3
20260508101002 41 254 1.0 1.0 0.00 0.00 0.00 83 1014.8
20260508100501 41 253 0.0 0.0 0.00 0.00 0.00 83 1014.9
20260508095957 41 253 1.0 2.0 0.00 0.00 0.00 83 1015.0
20260508095455 41 252 0.0 1.0 0.00 0.00 0.00 83 1014.9
20260508094951 41 252 1.0 1.0 0.00 0.00 0.00 83 1014.9
20260508094448 41 257 1.0 2.0 0.00 0.00 0.00 83 1015.1
20260508093945 41 262 0.0 2.0 0.00 0.00 0.00 85 1015.3
20260508093442 40 259 1.0 1.0 0.00 0.00 0.00 87 1015.1
20260508092940 40 259 0.0 0.0 0.00 0.00 0.00 86 1015.0
20260508092437 40 258 0.0 1.0 0.00 0.00 0.00 86 1015.3
20260508091936 40 258 1.0 1.0 0.00 0.00 0.00 87 1015.0
20260508091432 40 258 0.0 0.0 0.00 0.00 0.00 89 1015.1
20260508090929 40 258 0.0 0.0 0.00 0.00 0.00 88 1015.1
20260508090428 40 258 0.0 0.0 0.00 0.00 0.00 88 1015.4
20260508085923 39 258 0.0 0.0 0.00 0.00 0.00 88 1015.0
20260508085420 39 258 1.0 1.0 0.00 0.00 0.00 88 1015.0
20260508084917 39 258 0.0 0.0 0.00 0.00 0.00 88 1015.1
20260508084414 40 258 0.0 0.0 0.00 0.00 0.00 88 1015.4
20260508083912 40 258 0.0 0.0 0.00 0.00 0.00 87 1015.3
20260508083409 40 258 0.0 1.0 0.00 0.00 0.00 87 1015.2
20260508082908 40 258 1.0 1.0 0.00 0.00 0.00 88 1015.3
20260508082406 40 258 0.0 1.0 0.00 0.00 0.00 88 1015.3
20260508081904 39 260 1.0 1.0 0.00 0.00 0.00 90 1015.4
20260508081400 40 260 0.0 0.0 0.00 0.00 0.00 89 1015.1
20260508080857 40 260 0.0 1.0 0.00 0.00 0.00 89 1015.1
20260508080355 39 256 1.0 1.0 0.00 0.00 0.00 91 1015.2
20260508075851 39 10 0.0 0.0 0.00 0.00 0.00 93 1015.1
20260508075348 38 11 0.0 0.0 0.00 0.00 0.00 93 1015.2
20260508074846 38 11 0.0 0.0 0.00 0.00 0.00 93 1015.1
20260508074343 38 11 0.0 0.0 0.00 0.00 0.00 92 1015.1
20260508073840 38 11 0.0 0.0 0.00 0.00 0.00 91 1015.0
20260508073338 38 11 0.0 0.0 0.00 0.00 0.00 91 1015.3
20260508072834 39 11 0.0 0.0 0.00 0.00 0.00 93 1015.1
20260508072331 38 11 0.0 0.0 0.00 0.00 0.00 93 1015.2
20260508071828 38 11 0.0 0.0 0.00 0.00 0.00 93 1015.1
20260508071326 38 11 0.0 0.0 0.00 0.00 0.00 92 1015.3
20260508070823 38 11 0.0 0.0 0.00 0.00 0.00 93 1015.3
20260508070322 38 11 0.0 0.0 0.00 0.00 0.00 92 1015.3
20260508065819 38 11 0.0 0.0 0.00 0.00 0.00 92 1015.3
20260508065317 39 11 0.0 0.0 0.00 0.00 0.00 92 1015.2
20260508064815 39 11 0.0 0.0 0.00 0.00 0.00 93 1015.1
20260508064312 39 11 0.0 0.0 0.00 0.00 0.00 94 1015.1
20260508063809 39 11 0.0 0.0 0.00 0.00 0.00 94 1015.2
20260508063307 39 11 0.0 0.0 0.00 0.00 0.00 94 1015.3
20260508062804 39 11 0.0 0.0 0.00 0.00 0.00 93 1015.4
20260508062305 39 11 0.0 1.0 0.00 0.00 0.00 93 1015.1
20260508061758 39 11 0.0 0.0 0.00 0.00 0.00 92 1015.3
20260508061255 39 11 0.0 0.0 0.00 0.00 0.00 92 1015.2
20260508060752 39 11 0.0 0.0 0.00 0.00 0.00 92 1015.2
20260508060250 39 11 0.0 0.0 0.00 0.00 0.00 93 1015.4
20260508055745 39 11 0.0 0.0 0.00 0.00 0.00 93 1015.5
20260508055243 39 11 0.0 0.0 0.00 0.00 0.00 92 1015.5
20260508054739 39 11 0.0 0.0 0.00 0.00 0.00 91 1015.7
20260508054237 40 11 0.0 0.0 0.00 0.00 0.00 90 1015.7
20260508053734 40 11 0.0 0.0 0.00 0.00 0.00 90 1015.6
20260508053231 40 11 0.0 0.0 0.00 0.00 0.00 92 1015.5
20260508052728 40 11 0.0 0.0 0.00 0.00 0.00 93 1015.5
20260508052225 40 11 0.0 0.0 0.00 0.00 0.00 93 1015.5
20260508051721 40 11 0.0 0.0 0.00 0.00 0.00 93 1015.7
20260508051217 40 11 0.0 0.0 0.00 0.00 0.00 93 1015.8
20260508050713 40 11 0.0 0.0 0.00 0.00 0.00 93 1015.5
20260508050211 40 11 0.0 0.0 0.00 0.00 0.00 93 1015.7
20260508045706 41 11 0.0 0.0 0.00 0.00 0.00 93 1015.3
20260508045204 41 11 0.0 0.0 0.00 0.00 0.00 93 1015.5
20260508044702 41 11 0.0 0.0 0.00 0.00 0.00 92 1015.4
20260508044158 41 11 0.0 0.0 0.00 0.00 0.00 92 1015.5
20260508043653 41 11 1.0 1.0 0.00 0.00 0.00 92 1015.5
20260508043152 41 11 0.0 0.0 0.00 0.00 0.00 90 1015.4
20260508042648 41 11 0.0 0.0 0.00 0.00 0.00 90 1015.5
20260508042145 41 11 0.0 0.0 0.00 0.00 0.00 92 1015.4
20260508041642 40 11 0.0 0.0 0.00 0.00 0.00 93 1015.7
20260508041138 40 11 0.0 0.0 0.00 0.00 0.00 92 1015.5
20260508040635 40 11 0.0 0.0 0.00 0.00 0.00 91 1015.4
20260508040133 41 11 0.0 0.0 0.00 0.00 0.00 91 1015.3
20260508035630 41 11 0.0 0.0 0.00 0.00 0.00 91 1015.5
20260508035127 41 11 0.0 0.0 0.00 0.00 0.00 90 1015.5
20260508034624 41 11 0.0 0.0 0.00 0.00 0.00 90 1015.7
20260508034121 41 11 0.0 0.0 0.00 0.00 0.00 89 1015.4
20260508033618 41 11 0.0 0.0 0.00 0.00 0.00 88 1015.6
20260508033117 42 11 0.0 0.0 0.00 0.00 0.00 87 1015.7
20260508032613 42 11 0.0 0.0 0.00 0.00 0.00 88 1015.7
20260508032110 42 11 0.0 0.0 0.00 0.00 0.00 85 1015.6
20260508031607 42 11 0.0 0.0 0.00 0.00 0.00 85 1015.5
20260508031103 42 11 0.0 0.0 0.00 0.00 0.00 85 1015.6
20260508030559 42 11 0.0 0.0 0.00 0.00 0.00 82 1015.8
20260508030058 43 11 0.0 0.0 0.00 0.00 0.00 83 1015.8
20260508025553 43 11 0.0 0.0 0.00 0.00 0.00 80 1015.6
20260508025051 44 11 0.0 0.0 0.00 0.00 0.00 80 1015.6
20260508024547 43 11 0.0 0.0 0.00 0.00 0.00 79 1015.4
20260508024044 43 11 0.0 0.0 0.00 0.00 0.00 77 1015.5
20260508023540 44 10 0.0 0.0 0.00 0.00 0.00 76 1015.3
20260508023038 44 11 0.0 0.0 0.00 0.00 0.00 74 1015.3
20260508022533 44 10 0.0 0.0 0.00 0.00 0.00 76 1015.4
20260508022031 44 10 0.0 0.0 0.00 0.00 0.00 73 1015.2
20260508021526 45 11 0.0 0.0 0.00 0.00 0.00 73 1015.2
20260508021022 45 11 0.0 0.0 0.00 0.00 0.00 72 1015.2
20260508020520 46 11 0.0 0.0 0.00 0.00 0.00 71 1015.2
20260508020018 46 11 0.0 0.0 0.00 0.00 0.00 71 1015.3
20260508015515 46 11 0.0 0.0 0.00 0.00 0.00 71 1015.2
20260508015012 47 11 0.0 0.0 0.00 0.00 0.00 68 1015.1
20260508014508 48 11 0.0 1.0 0.00 0.00 0.00 66 1015.0
20260508014005 48 10 0.0 0.0 0.00 0.00 0.00 63 1014.9
20260508013501 48 10 0.0 0.0 0.00 0.00 0.00 63 1014.7
20260508012958 48 10 0.0 0.0 0.00 0.00 0.00 65 1014.7
20260508012455 49 10 0.0 0.0 0.00 0.00 0.00 64 1014.8
20260508011952 49 10 0.0 0.0 0.00 0.00 0.00 63 1014.9
20260508011450 50 11 0.0 0.0 0.00 0.00 0.00 62 1014.7
20260508010948 51 10 0.0 0.0 0.00 0.00 0.00 59 1014.4
20260508010445 51 11 0.0 1.0 0.00 0.00 0.00 57 1014.5
20260508005942 52 10 1.0 1.0 0.00 0.00 0.00 54 1014.7
20260508005438 52 10 1.0 1.0 0.00 0.00 0.00 53 1014.3
20260508004934 53 10 0.0 0.0 0.00 0.00 0.00 51 1014.5
20260508004431 54 10 0.0 1.0 0.00 0.00 0.00 50 1014.3
20260508003928 55 10 1.0 1.0 0.00 0.00 0.00 46 1014.5
20260508003425 55 10 0.0 0.0 0.00 0.00 0.00 44 1014.3
20260508002922 56 10 0.0 1.0 0.00 0.00 0.00 41 1014.2
20260508002418 57 10 1.0 1.0 0.00 0.00 0.00 39 1014.2
20260508001915 59 9 1.0 1.0 0.00 0.00 0.00 37 1014.1
20260508001411 60 10 1.0 1.0 0.00 0.00 0.00 36 1014.0
20260508000908 60 10 2.0 2.0 0.00 0.00 0.00 35 1014.0
20260508000405 60 4 0.0 1.0 0.00 0.00 0.00 36 1014.0
20260507235900 60 357 1.0 1.0 0.00 0.00 0.00 36 1013.9
20260507235358 60 35 1.0 3.0 0.00 0.00 0.00 36 1013.9
20260507234855 60 53 2.0 3.0 0.00 0.00 0.00 34 1013.8
20260507234351 60 7 3.0 6.0 0.00 0.00 0.00 35 1014.0
20260507233848 60 329 3.0 6.0 0.00 0.00 0.00 36 1013.9
20260507233345 61 338 4.0 6.0 0.00 0.00 0.00 34 1014.2
20260507232843 61 63 3.0 6.0 0.00 0.00 0.00 33 1013.8
20260507232339 61 4 2.0 2.0 0.00 0.00 0.00 36 1013.7
20260507231837 61 334 5.0 8.0 0.00 0.00 0.00 36 1014.0
20260507231333 62 9 3.0 6.0 0.00 0.00 0.00 34 1014.0
20260507230829 62 57 3.0 6.0 0.00 0.00 0.00 33 1014.0
20260507230327 61 19 2.0 6.0 0.00 0.00 0.00 34 1013.8
20260507225827 62 22 5.0 7.0 0.00 0.00 0.00 34 1013.9